• In Netherlands
  • List of Countries
  • For 7 days
  • Water Temperature
  • Satellite Maps
  • Weather Map
  • Weather Widgets
  • user-avatar
    Login

    Hourly Weather Sevan

    Today, 23 June, Friday

    Time Temperature Precipitation Wind Pressure Humidity
    00:00 +11°C° 0 mm 1 mps 640 mmHg 88%
    01:00 +10°C° 0 mm 1 mps 640 mmHg 89%
    02:00 +10°C° 0 mm 1 mps 640 mmHg 90%
    03:00 +10°C° 0 mm 1 mps 640 mmHg 91%
    04:00 +11°C° 0 mm 1 mps 640 mmHg 87%
    05:00 +12°C° 0 mm 1 mps 641 mmHg 84%
    06:00 +13°C° 0 mm 1 mps 641 mmHg 81%
    07:00 +15°C° 0 mm 1 mps 642 mmHg 71%
    08:00 +19°C° 0 mm 1 mps 643 mmHg 61%
    09:00 +21°C° 0 mm 1 mps 643 mmHg 51%
    10:00 +22°C° 0.1 mm 1 mps 643 mmHg 48%
    11:00 +23°C° 0.1 mm 1 mps 643 mmHg 46%
    12:00 +24°C° 0.1 mm 1 mps 643 mmHg 44%
    13:00 +24°C° 0.4 mm 1 mps 643 mmHg 45%
    14:00 +24°C° 0.4 mm 1 mps 643 mmHg 46%
    15:00 +24°C° 0.4 mm 1 mps 643 mmHg 47%
    16:00 +23°C° 0.6 mm 1 mps 642 mmHg 52%
    17:00 +22°C° 0.6 mm 1 mps 642 mmHg 56%
    18:00 +22°C° 0.6 mm 1 mps 642 mmHg 60%
    19:00 +19°C° 0.4 mm 1 mps 642 mmHg 67%
    20:00 +16°C° 0.4 mm 2 mps 642 mmHg 73%
    21:00 +14°C° 0.4 mm 2 mps 642 mmHg 80%
    22:00 +13°C° 0.1 mm 2 mps 642 mmHg 82%
    23:00 +13°C° 0.1 mm 2 mps 642 mmHg 83%

    Tomorrow, 24 June, Saturday

    Time Temperature Precipitation Wind Pressure Humidity
    00:00 +12°C° 0.1 mm 1 mps 641 mmHg 85%
    01:00 +12°C° 0 mm 1 mps 641 mmHg 86%
    02:00 +11°C° 0 mm 1 mps 641 mmHg 87%
    03:00 +11°C° 0 mm 1 mps 641 mmHg 88%
    04:00 +12°C° 0 mm 1 mps 641 mmHg 85%
    05:00 +13°C° 0 mm 1 mps 642 mmHg 83%
    06:00 +14°C° 0 mm 1 mps 642 mmHg 80%
    07:00 +16°C° 0 mm 1 mps 643 mmHg 69%
    08:00 +20°C° 0 mm 1 mps 643 mmHg 58%
    09:00 +23°C° 0 mm 1 mps 644 mmHg 46%
    10:00 +24°C° 0 mm 1 mps 644 mmHg 42%
    11:00 +26°C° 0 mm 1 mps 644 mmHg 37%
    12:00 +27°C° 0 mm 1 mps 644 mmHg 32%
    13:00 +27°C° 0 mm 1 mps 644 mmHg 31%
    14:00 +28°C° 0 mm 1 mps 643 mmHg 30%
    15:00 +28°C° 0 mm 2 mps 643 mmHg 29%
    16:00 +27°C° 0 mm 1 mps 643 mmHg 33%
    17:00 +26°C° 0 mm 1 mps 642 mmHg 38%
    18:00 +25°C° 0 mm 1 mps 642 mmHg 42%
    19:00 +22°C° 0 mm 1 mps 642 mmHg 51%
    20:00 +19°C° 0 mm 1 mps 641 mmHg 61%
    21:00 +16°C° 0 mm 2 mps 641 mmHg 70%
    22:00 +15°C° 0 mm 1 mps 641 mmHg 75%
    23:00 +15°C° 0 mm 1 mps 641 mmHg 79%

    Day after tomorrow, 25 June, Sunday

    Time Temperature Precipitation Wind Pressure Humidity
    00:00 +14°C° 0 mm 1 mps 641 mmHg 84%
    01:00 +14°C° 0 mm 1 mps 641 mmHg 86%
    02:00 +13°C° 0 mm 1 mps 641 mmHg 87%
    03:00 +13°C° 0 mm 1 mps 640 mmHg 89%
    04:00 +14°C° 0 mm 1 mps 641 mmHg 85%
    05:00 +15°C° 0 mm 1 mps 641 mmHg 81%
    06:00 +16°C° 0 mm 1 mps 642 mmHg 78%
    07:00 +20°C° 0 mm 1 mps 643 mmHg 65%
    08:00 +22°C° 0 mm 1 mps 643 mmHg 53%
    09:00 +25°C° 0 mm 1 mps 644 mmHg 40%
    10:00 +26°C° 0 mm 1 mps 644 mmHg 36%
    11:00 +27°C° 0 mm 1 mps 644 mmHg 31%
    12:00 +29°C° 0 mm 1 mps 644 mmHg 27%
    13:00 +29°C° 0 mm 1 mps 644 mmHg 27%
    14:00 +29°C° 0 mm 2 mps 644 mmHg 26%
    15:00 +29°C° 0 mm 2 mps 643 mmHg 26%
    16:00 +28°C° 0 mm 1 mps 643 mmHg 31%
    17:00 +27°C° 0 mm 1 mps 643 mmHg 35%
    18:00 +26°C° 0 mm 1 mps 643 mmHg 39%
    19:00 +23°C° 0 mm 2 mps 643 mmHg 50%
    20:00 +20°C° 0 mm 2 mps 642 mmHg 61%
    21:00 +17°C° 0 mm 2 mps 642 mmHg 72%
    22:00 +16°C° 0 mm 2 mps 642 mmHg 74%
    23:00 +16°C° 0 mm 2 mps 642 mmHg 76%

    26 June, Monday

    Time Temperature Precipitation Wind Pressure Humidity
    00:00 +15°C° 0 mm 2 mps 642 mmHg 77%
    01:00 +14°C° 0 mm 2 mps 642 mmHg 78%
    02:00 +14°C° 0 mm 1 mps 642 mmHg 79%
    03:00 +13°C° 0 mm 1 mps 642 mmHg 80%
    04:00 +14°C° 0 mm 1 mps 643 mmHg 76%
    05:00 +15°C° 0 mm 1 mps 643 mmHg 72%
    06:00 +16°C° 0 mm 1 mps 644 mmHg 69%
    07:00 +20°C° 0 mm 1 mps 644 mmHg 59%
    08:00 +22°C° 0 mm 1 mps 645 mmHg 50%
    09:00 +25°C° 0 mm 1 mps 646 mmHg 40%
    10:00 +26°C° 0 mm 1 mps 646 mmHg 37%
    11:00 +28°C° 0 mm 1 mps 646 mmHg 33%
    12:00 +29°C° 0 mm 2 mps 646 mmHg 30%
    13:00 +29°C° 0 mm 2 mps 645 mmHg 30%
    14:00 +30°C° 0 mm 2 mps 645 mmHg 30%
    15:00 +30°C° 0 mm 2 mps 645 mmHg 29%
    16:00 +29°C° 0 mm 2 mps 644 mmHg 34%
    17:00 +28°C° 0 mm 1 mps 644 mmHg 39%
    18:00 +27°C° 0 mm 1 mps 644 mmHg 44%
    19:00 +24°C° 0 mm 1 mps 644 mmHg 55%
    20:00 +21°C° 0 mm 2 mps 643 mmHg 65%
    21:00 +18°C° 0 mm 2 mps 643 mmHg 76%
    22:00 +17°C° 0 mm 2 mps 643 mmHg 78%
    23:00 +17°C° 0 mm 2 mps 643 mmHg 80%

    27 June, Tuesday

    Time Temperature Precipitation Wind Pressure Humidity
    00:00 +16°C° 0 mm 2 mps 643 mmHg 82%
    01:00 +16°C° 0 mm 1 mps 643 mmHg 82%
    02:00 +15°C° 0 mm 1 mps 642 mmHg 82%
    03:00 +15°C° 0 mm 1 mps 642 mmHg 82%
    04:00 +16°C° 0 mm 1 mps 643 mmHg 79%
    05:00 +18°C° 0 mm 1 mps 643 mmHg 75%
    06:00 +19°C° 0 mm 1 mps 644 mmHg 72%
    07:00 +22°C° 0 mm 1 mps 644 mmHg 60%
    08:00 +25°C° 0 mm 1 mps 645 mmHg 48%
    09:00 +28°C° 0 mm 1 mps 646 mmHg 37%
    10:00 +29°C° 0 mm 1 mps 646 mmHg 33%
    11:00 +31°C° 0 mm 1 mps 646 mmHg 30%
    12:00 +32°C° 0 mm 1 mps 646 mmHg 26%
    13:00 +32°C° 0 mm 1 mps 645 mmHg 26%
    14:00 +33°C° 0 mm 1 mps 645 mmHg 26%
    15:00 +33°C° 0 mm 1 mps 645 mmHg 25%
    16:00 +31°C° 0.1 mm 1 mps 644 mmHg 31%
    17:00 +30°C° 0.1 mm 1 mps 644 mmHg 38%
    18:00 +28°C° 0.1 mm 1 mps 643 mmHg 44%
    19:00 +26°C° 0.1 mm 1 mps 643 mmHg 53%
    20:00 +23°C° 0.1 mm 2 mps 643 mmHg 63%
    21:00 +20°C° 0.1 mm 2 mps 643 mmHg 72%
    22:00 +19°C° 0 mm 2 mps 642 mmHg 73%
    23:00 +18°C° 0 mm 2 mps 642 mmHg 74%

    28 June, Wednesday

    Time Temperature Precipitation Wind Pressure Humidity
    00:00 +18°C° 0 mm 2 mps 642 mmHg 75%
    01:00 +17°C° 0 mm 2 mps 642 mmHg 75%
    02:00 +17°C° 0 mm 2 mps 642 mmHg 76%
    03:00 +16°C° 0 mm 2 mps 642 mmHg 77%
    04:00 +18°C° 0 mm 1 mps 642 mmHg 75%
    05:00 +19°C° 0 mm 1 mps 643 mmHg 73%
    06:00 +20°C° 0 mm 1 mps 643 mmHg 72%
    07:00 +22°C° 0 mm 1 mps 643 mmHg 62%
    08:00 +25°C° 0 mm 1 mps 644 mmHg 53%
    09:00 +27°C° 0 mm 1 mps 645 mmHg 43%
    10:00 +29°C° 0.1 mm 1 mps 644 mmHg 40%
    11:00 +30°C° 0.1 mm 1 mps 644 mmHg 36%
    12:00 +31°C° 0.1 mm 1 mps 644 mmHg 33%
    13:00 +31°C° 0.2 mm 1 mps 644 mmHg 34%
    14:00 +31°C° 0.2 mm 1 mps 643 mmHg 36%
    15:00 +31°C° 0.2 mm 1 mps 643 mmHg 38%
    16:00 +30°C° 0.3 mm 2 mps 642 mmHg 42%
    17:00 +29°C° 0.3 mm 2 mps 642 mmHg 47%
    18:00 +27°C° 0.3 mm 3 mps 642 mmHg 52%
    19:00 +25°C° 0.2 mm 3 mps 641 mmHg 59%
    20:00 +21°C° 0.2 mm 2 mps 641 mmHg 67%
    21:00 +19°C° 0.2 mm 2 mps 641 mmHg 75%
    22:00 +18°C° 0.1 mm 2 mps 641 mmHg 76%
    23:00 +17°C° 0.1 mm 2 mps 640 mmHg 77%
    Show more